This is the latest recevied weather packets stored in our database for station/object AD8BW. If no packets are shown the sender has not sent any weather packets the latest 10 day(s).
| Time | Temp. | Humidity | Pressure | Rain* | Wind** | Luminosity | Snow |
|---|---|---|---|---|---|---|---|
| 1777963435 | 15.56° C | 75% | 998.5 hPa | 0 mm | - | 0 W/m² | - |
| 1777962833 | 15.56° C | 74% | 998.8 hPa | 0 mm | - | 0 W/m² | - |
| 1777962233 | 15.56° C | 74% | 999.2 hPa | 0 mm | - | 0 W/m² | - |
| 1777961633 | 16.11° C | 74% | 999.3 hPa | 0 mm | - | 0 W/m² | - |
| 1777961034 | 16.11° C | 73% | 999.4 hPa | 0 mm | - | 0 W/m² | - |
| 1777960435 | 16.67° C | 71% | 999 hPa | 0 mm | - | 0 W/m² | - |
| 1777959833 | 16.67° C | 70% | 999.2 hPa | 0 mm | - | 0 W/m² | - |
| 1777959238 | 17.22° C | 69% | 999.1 hPa | 0 mm | - | 0 W/m² | - |
| 1777958637 | 17.78° C | 68% | 999.1 hPa | 0 mm | - | 0 W/m² | - |
| 1777958034 | 17.78° C | 68% | 998.7 hPa | 0 mm | - | 0 W/m² | - |
| 1777957436 | 18.33° C | 70% | 999.2 hPa | 0 mm | - | 0 W/m² | - |
| 1777956836 | 18.33° C | 69% | 999.2 hPa | 0 mm | - | 0 W/m² | - |
| 1777956235 | 18.33° C | 69% | 999.1 hPa | 0 mm | - | 0 W/m² | - |
| 1777955632 | 18.33° C | 69% | 998.7 hPa | 0 mm | - | 0 W/m² | - |
| 1777955036 | 18.33° C | 71% | 998.5 hPa | 0 mm | - | 0 W/m² | - |
| 1777954435 | 17.78° C | 71% | 998.6 hPa | 0 mm | - | 0 W/m² | - |
| 1777953834 | 17.78° C | 71% | 998.6 hPa | 0 mm | - | 0 W/m² | - |
| 1777953234 | 17.78° C | 72% | 998.7 hPa | 0 mm | - | 0 W/m² | - |
| 1777952633 | 17.22° C | 73% | 998.7 hPa | 0 mm | - | 0 W/m² | - |
| 1777952034 | 17.22° C | 73% | 998.6 hPa | 0 mm | - | 0 W/m² | - |
| 1777951429 | 17.22° C | 74% | 998.7 hPa | 0 mm | - | 0 W/m² | - |
| 1777950830 | 17.22° C | 75% | 998.8 hPa | 0 mm | - | 0 W/m² | - |
| 1777950231 | 16.67° C | 75% | 999 hPa | 0 mm | - | 0 W/m² | - |
| 1777949631 | 17.22° C | 75% | 999.2 hPa | 0 mm | - | 0 W/m² | - |
| 1777949031 | 17.22° C | 75% | 999.2 hPa | 0 mm | - | 0 W/m² | - |
* Rain latest hour (hover to see other rain measurements)
** Current wind speed in m/s (hover to see current wind gust speed)